GW2278 Weather Reports


Display with metric or nautical units.
time (UTC)temp
F
wind
direction
speed
MPH
gust
MPH
rain 1hr
in
rain 24hr
in
rain mn
in
humidity
%
barometer
mb
20260502164254 51 114 2.0 5.0 0.00 0.06 0.06 86 1009.6
20260502163750 51 215 2.0 10.0 0.00 0.06 0.06 86 1009.4
20260502163247 51 207 5.0 7.0 0.00 0.06 0.06 86 1009.4
20260502162744 51 118 7.0 7.0 0.00 0.06 0.06 86 1009.6
20260502162241 51 105 2.0 6.0 0.00 0.06 0.06 86 1009.4
20260502161738 51 88 4.0 8.0 0.00 0.06 0.06 85 1009.4
20260502161234 51 112 5.0 6.0 0.00 0.06 0.06 86 1009.6
20260502160732 51 124 5.0 9.0 0.00 0.06 0.06 86 1009.6
20260502160231 51 106 4.0 5.0 0.00 0.06 0.06 87 1009.4
20260502152155 51 114 2.0 5.0 0.00 0.06 0.06 88 1010.1
20260502151652 50 131 0.0 5.0 0.00 0.06 0.06 88 1010.3
20260502151150 51 106 5.0 6.0 0.00 0.06 0.06 88 1010.3
20260502150647 51 109 4.0 8.0 0.00 0.06 0.06 88 1010.2
20260502150143 51 211 3.0 6.0 0.00 0.06 0.06 86 1010.3
20260502140107 51 136 4.0 5.0 0.00 0.06 0.06 88 1010.2
20260502130532 48 170 2.0 3.0 0.00 0.06 0.06 97 1009.9
20260502123515 47 50 2.0 5.0 0.00 0.06 0.06 98 1009.8
20260502123011 47 83 2.0 3.0 0.00 0.06 0.06 98 1010.3
20260502122508 46 67 3.0 8.0 0.00 0.06 0.06 98 1010.3
20260502122006 46 91 2.0 8.0 0.02 0.06 0.06 98 1010.5
20260502121503 46 74 2.0 4.0 0.07 0.06 0.06 98 1010.7
20260502121000 46 86 3.0 3.0 0.12 0.05 0.05 98 1010.6
20260502120456 46 88 1.0 3.0 0.12 0.04 0.04 98 1010.8
20260502115451 46 182 2.0 4.0 0.02 0.02 0.02 98 1011.1
20260502114947 46 119 2.0 3.0 0.05 0.02 0.02 98 1010.8
20260502114444 46 48 0.0 2.0 0.02 0.02 0.02 98 1010.9
20260502113941 46 196 0.0 3.0 0.02 0.02 0.02 98 1010.8
20260502113438 46 38 0.0 4.0 0.02 0.02 0.02 98 1010.9
20260502112937 46 116 0.0 3.0 0.00 0.01 0.01 98 1010.7
20260502112434 46 49 1.0 3.0 0.00 0.01 0.01 97 1010.8
20260502111931 46 294 0.0 7.0 0.00 0.01 0.01 97 1010.6
20260502111428 46 301 2.0 3.0 0.00 0.01 0.01 97 1011.1
20260502110926 46 309 1.0 3.0 0.00 0.01 0.01 97 1010.7
20260502110424 46 309 0.0 9.0 0.00 0.01 0.01 98 1010.9
20260502105920 46 247 1.0 2.0 0.00 0.01 0.01 97 1010.6
20260502105417 46 189 2.0 3.0 0.00 0.01 0.01 97 1010.5
20260502104916 46 83 1.0 2.0 0.00 0.01 0.01 97 1010.4
20260502104412 46 112 2.0 4.0 0.00 0.01 0.01 97 1010.1
20260502103910 46 218 2.0 3.0 0.00 0.01 0.01 97 1010.0
20260502103408 45 170 2.0 2.0 0.00 0.01 0.01 97 1009.8
20260502102904 45 64 1.0 3.0 0.00 0.01 0.01 96 1009.7
20260502102401 45 127 3.0 3.0 0.00 0.01 0.01 96 1010.0
20260502101858 45 128 0.0 2.0 0.02 0.01 0.01 96 1009.9
20260502101356 45 24 1.0 3.0 0.00 0.01 0.01 96 1010.0
20260502100854 45 53 2.0 2.0 0.00 0.01 0.01 96 1009.8
20260502100353 45 135 0.0 2.0 0.00 0.01 0.01 96 1010.1
20260502091327 45 297 0.0 2.0 0.00 0.00 0.00 94 1009.8
20260502090825 45 121 0.0 3.0 0.00 0.00 0.00 94 1009.6
20260502090321 45 133 2.0 3.0 0.00 0.00 0.00 94 1009.6
20260502071216 47 63 2.0 3.0 0.00 0.00 0.00 85 1009.8
20260502070715 47 48 0.0 3.0 0.00 0.00 0.00 84 1010.0
20260502070212 47 143 2.0 4.0 0.00 0.00 0.00 84 1010.0
20260502065710 47 182 1.0 3.0 0.00 0.00 0.00 84 1010.0
20260502065208 47 156 2.0 2.0 0.00 0.00 0.00 84 1009.7
20260502064706 47 43 1.0 3.0 0.00 0.00 0.00 83 1009.8
20260502064203 47 208 1.0 4.0 0.00 0.00 0.00 83 1010.0
20260502063701 47 86 2.0 3.0 0.00 0.00 0.00 83 1009.7
20260502063159 47 177 2.0 5.0 0.00 0.00 0.00 82 1009.9
20260502062655 47 188 1.0 4.0 0.00 0.00 0.00 82 1009.9
20260502062153 48 150 4.0 6.0 0.00 0.00 0.00 82 1010.1
20260502061651 48 209 4.0 5.0 0.00 0.00 0.00 82 1010.1
20260502061148 48 194 2.0 3.0 0.00 0.00 0.00 81 1010.0
20260502060648 48 223 3.0 4.0 0.00 0.00 0.00 81 1009.9
20260502060145 48 162 3.0 5.0 0.00 0.00 0.00 80 1010.1
20260502055643 48 219 1.0 3.0 0.00 0.00 0.00 80 1010.0
20260502055141 48 165 5.0 7.0 0.00 0.00 0.00 80 1009.9
20260502054640 48 149 0.0 3.0 0.00 0.00 0.00 79 1010.1
20260502054137 48 126 0.0 4.0 0.00 0.00 0.00 79 1010.0
20260502053634 48 171 2.0 3.0 0.00 0.00 0.00 79 1010.2
20260502053131 48 199 2.0 4.0 0.00 0.00 0.00 79 1010.1
20260502052629 48 196 2.0 5.0 0.00 0.00 0.00 79 1010.1
20260502052127 48 177 2.0 4.0 0.00 0.00 0.00 78 1010.2
20260502051625 48 142 2.0 5.0 0.00 0.00 0.00 78 1010.2
20260502051123 48 169 3.0 5.0 0.00 0.00 0.00 78 1010.3
20260502050619 49 183 4.0 7.0 0.00 0.00 0.00 78 1010.3
20260502050116 49 151 3.0 4.0 0.00 0.00 0.00 77 1010.3
20260502045612 49 160 2.0 5.0 0.00 0.00 0.00 77 1010.3
20260502045110 49 186 2.0 5.0 0.00 0.00 0.00 77 1010.2
20260502044606 49 199 2.0 5.0 0.00 0.00 0.00 76 1010.4
20260502044103 49 179 2.0 6.0 0.00 0.00 0.00 76 1010.3
20260502043600 49 173 2.0 6.0 0.00 0.00 0.00 76 1010.2
20260502043057 49 178 3.0 4.0 0.00 0.00 0.00 75 1010.1
20260502042551 49 168 0.0 6.0 0.00 0.00 0.00 75 1010.4
20260502042049 49 192 2.0 5.0 0.00 0.00 0.00 74 1010.3
20260502041546 49 204 1.0 4.0 0.00 0.00 0.00 74 1010.3
20260502041043 49 235 3.0 5.0 0.00 0.00 0.00 74 1010.1
20260502040539 50 168 2.0 3.0 0.00 0.00 0.00 74 1010.2
20260502040037 50 214 2.0 5.0 0.00 0.00 0.00 73 1010.1
20260502035532 50 227 3.0 11.0 0.00 0.00 0.00 73 1010.2
20260502035030 50 219 1.0 5.0 0.00 0.00 0.00 73 1010.4
20260502034528 50 164 2.0 3.0 0.00 0.00 0.00 73 1010.4
20260502034026 50 223 1.0 3.0 0.00 0.00 0.00 73 1010.1
20260502033524 50 195 0.0 5.0 0.00 0.00 0.00 73 1010.3
20260502033021 50 194 3.0 7.0 0.00 0.00 0.00 73 1010.4
20260502032517 50 184 3.0 3.0 0.00 0.00 0.00 73 1010.4
20260502032014 50 208 3.0 3.0 0.00 0.00 0.00 72 1010.5
20260502031512 50 213 3.0 6.0 0.00 0.00 0.00 72 1010.3
20260502031010 50 219 2.0 5.0 0.00 0.00 0.00 72 1010.4
20260502030508 50 177 4.0 6.0 0.00 0.00 0.00 72 1010.4
20260502030006 50 210 1.0 6.0 0.00 0.00 0.00 71 1010.6
20260502025503 50 185 3.0 5.0 0.00 0.00 0.00 71 1010.6
20260502025001 50 171 2.0 4.0 0.00 0.00 0.00 71 1010.3
20260502024458 50 162 2.0 5.0 0.00 0.00 0.00 70 1010.5
20260502023956 50 151 2.0 4.0 0.00 0.00 0.00 70 1010.7
20260502023453 51 206 3.0 5.0 0.00 0.00 0.00 69 1010.5
20260502022951 51 155 2.0 6.0 0.00 0.00 0.00 69 1010.5
20260502022447 51 156 3.0 5.0 0.00 0.00 0.00 69 1010.3
20260502021944 51 163 4.0 5.0 0.00 0.00 0.00 68 1010.4
20260502021442 51 186 3.0 5.0 0.00 0.00 0.00 68 1010.2
20260502020939 51 207 2.0 9.0 0.00 0.00 0.00 67 1010.4
20260502020437 51 225 5.0 9.0 0.00 0.00 0.00 67 1010.4
20260502015933 51 170 2.0 6.0 0.00 0.00 0.00 67 1010.6
20260502015431 51 131 3.0 5.0 0.00 0.00 0.00 66 1010.4
20260502014927 52 176 4.0 5.0 0.00 0.00 0.00 64 1010.4
20260502014424 52 169 4.0 7.0 0.00 0.00 0.00 63 1010.4
20260502013921 52 151 4.0 7.0 0.00 0.00 0.00 63 1010.3
20260502013416 52 167 1.0 5.0 0.00 0.00 0.00 62 1010.3
20260502012913 52 188 3.0 5.0 0.00 0.00 0.00 60 1010.2
20260502012411 52 137 2.0 8.0 0.00 0.00 0.00 59 1010.3
20260502011908 52 190 3.0 3.0 0.00 0.00 0.00 58 1010.4
20260502011404 52 152 2.0 4.0 0.00 0.00 0.00 56 1010.3
20260502010901 52 161 2.0 4.0 0.00 0.00 0.00 55 1010.0
20260502010358 53 162 4.0 7.0 0.00 0.00 0.00 54 1010.2
20260502005854 53 190 2.0 6.0 0.00 0.00 0.00 52 1009.9
20260502005352 53 171 3.0 7.0 0.00 0.00 0.00 51 1009.8
20260502004850 53 222 9.0 13.0 0.00 0.00 0.00 51 1009.9
20260502004345 53 192 6.0 10.0 0.00 0.00 0.00 50 1009.5
20260502003843 53 216 3.0 5.0 0.00 0.00 0.00 50 1009.7
20260502003340 53 149 0.0 3.0 0.00 0.00 0.00 51 1009.7
20260502002836 53 154 0.0 3.0 0.00 0.00 0.00 51 1009.6
20260502002334 54 167 0.0 3.0 0.00 0.00 0.00 50 1009.6
20260502001831 53 210 2.0 3.0 0.00 0.00 0.00 51 1009.3
20260502001329 54 175 3.0 3.0 0.00 0.00 0.00 49 1009.2
20260502000826 53 233 2.0 6.0 0.00 0.00 0.00 51 1009.4
20260502000325 53 192 2.0 4.0 0.00 0.00 0.00 50 1009.2
20260501235820 54 78 1.0 2.0 0.00 0.00 0.00 48 1008.9
20260501235316 54 4 0.0 2.0 0.00 0.00 0.00 46 1008.8
20260501234811 55 23 2.0 3.0 0.00 0.00 0.00 46 1008.8
20260501234309 55 34 2.0 3.0 0.00 0.00 0.00 46 1008.7
20260501233807 55 31 0.0 2.0 0.00 0.00 0.00 46 1008.6
20260501233304 55 17 2.0 2.0 0.00 0.00 0.00 46 1008.7
20260501232759 56 338 0.0 2.0 0.00 0.00 0.00 48 1008.8
20260501232257 57 306 0.0 1.0 0.00 0.00 0.00 45 1008.6
20260501231754 57 269 0.0 6.0 0.00 0.00 0.00 43 1008.3
20260501231252 57 357 1.0 3.0 0.00 0.00 0.00 45 1008.4
20260501230750 58 296 0.0 2.0 0.00 0.00 0.00 44 1008.4
20260501230249 58 258 3.0 8.0 0.00 0.00 0.00 41 1008.6
20260501225746 58 278 2.0 2.0 0.00 0.00 0.00 45 1008.6
20260501225243 59 256 2.0 5.0 0.00 0.00 0.00 40 1008.3
20260501224739 59 271 0.0 5.0 0.00 0.00 0.00 40 1008.1
20260501224237 59 219 5.0 7.0 0.00 0.00 0.00 40 1008.2
20260501223733 59 203 3.0 7.0 0.00 0.00 0.00 42 1008.2
20260501223229 59 66 1.0 4.0 0.00 0.00 0.00 40 1008.1
20260501222725 59 10 2.0 3.0 0.00 0.00 0.00 42 1008.1
20260501222223 59 5 2.0 3.0 0.00 0.00 0.00 43 1008.0
20260501221720 59 2 2.0 3.0 0.00 0.00 0.00 43 1008.1
20260501221217 59 210 4.0 10.0 0.00 0.00 0.00 39 1008.1
20260501220714 59 240 6.0 7.0 0.00 0.00 0.00 40 1008.3
20260501220212 60 204 4.0 5.0 0.00 0.00 0.00 39 1008.2
20260501215709 60 212 0.0 3.0 0.00 0.00 0.00 40 1008.3
20260501215204 60 281 3.0 8.0 0.00 0.00 0.00 39 1008.4
20260501214659 60 226 4.0 7.0 0.00 0.00 0.00 38 1008.2
20260501214155 60 333 3.0 5.0 0.00 0.00 0.00 37 1008.2
20260501213652 60 211 3.0 5.0 0.00 0.00 0.00 38 1008.2
20260501213147 61 207 5.0 5.0 0.00 0.00 0.00 37 1008.2
20260501212644 61 9 2.0 5.0 0.00 0.00 0.00 36 1008.2
20260501212141 62 219 7.0 9.0 0.00 0.00 0.00 35 1008.1
20260501211638 62 29 2.0 4.0 0.00 0.00 0.00 36 1008.1
20260501211135 61 248 2.0 10.0 0.00 0.00 0.00 36 1008.0
20260501210626 62 315 4.0 5.0 0.00 0.00 0.00 39 1008.1
20260501210123 61 217 5.0 10.0 0.00 0.00 0.00 35 1008.0
20260501205619 63 295 4.0 10.0 0.00 0.00 0.00 36 1008.0
20260501205117 64 313 4.0 5.0 0.00 0.00 0.00 35 1008.1
20260501204613 63 241 2.0 6.0 0.00 0.00 0.00 37 1007.9
20260501204109 62 267 2.0 7.0 0.00 0.00 0.00 37 1008.0
20260501203606 63 300 4.0 5.0 0.00 0.00 0.00 37 1008.0
20260501203104 62 300 2.0 9.0 0.00 0.00 0.00 36 1008.1
20260501202601 62 308 2.0 4.0 0.00 0.00 0.00 35 1008.2
20260501202057 61 237 3.0 16.0 0.00 0.00 0.00 36 1007.8
20260501201554 63 301 2.0 10.0 0.00 0.00 0.00 34 1008.2
20260501201050 61 17 2.0 6.0 0.00 0.00 0.00 37 1008.0
20260501200548 62 299 3.0 7.0 0.00 0.00 0.00 38 1008.1
20260501200045 63 9 0.0 4.0 0.00 0.00 0.00 40 1007.9
20260501195543 63 293 2.0 4.0 0.00 0.00 0.00 34 1007.9
20260501195038 63 267 3.0 10.0 0.00 0.00 0.00 38 1008.1
20260501194533 62 268 4.0 10.0 0.00 0.00 0.00 35 1008.2
20260501194030 64 184 3.0 3.0 0.00 0.00 0.00 34 1008.0
20260501193527 63 351 4.0 5.0 0.00 0.00 0.00 36 1008.0
20260501193025 62 202 3.0 7.0 0.00 0.00 0.00 40 1008.2
20260501192522 60 216 4.0 11.0 0.00 0.00 0.00 36 1008.4
20260501192020 62 290 0.0 6.0 0.00 0.00 0.00 38 1008.3
20260501191516 62 267 4.0 8.0 0.00 0.00 0.00 39 1008.2
20260501191014 60 354 3.0 5.0 0.00 0.00 0.00 44 1008.3
20260501190508 61 28 1.0 6.0 0.00 0.00 0.00 40 1008.4
20260501190004 62 275 4.0 7.0 0.00 0.00 0.00 39 1008.4
20260501185500 62 327 8.0 13.0 0.00 0.00 0.00 40 1008.4
20260501184956 61 284 4.0 6.0 0.00 0.00 0.00 38 1008.4
20260501184453 62 269 3.0 6.0 0.00 0.00 0.00 41 1008.6
20260501183948 61 279 0.0 6.0 0.00 0.00 0.00 35 1008.3
20260501183445 61 164 3.0 6.0 0.00 0.00 0.00 39 1008.7
20260501182942 60 329 4.0 6.0 0.00 0.00 0.00 38 1008.4
20260501182439 60 324 2.0 7.0 0.00 0.00 0.00 36 1008.6
20260501181935 61 255 3.0 9.0 0.00 0.00 0.00 40 1008.8
20260501181432 60 122 5.0 12.0 0.00 0.00 0.00 38 1008.6
20260501180929 59 277 3.0 9.0 0.00 0.00 0.00 40 1008.7
20260501180426 59 293 0.0 6.0 0.00 0.00 0.00 42 1008.6
20260501175923 61 276 3.0 7.0 0.00 0.00 0.00 40 1008.6
20260501175420 60 23 2.0 5.0 0.00 0.00 0.00 40 1008.6
20260501174916 59 273 5.0 17.0 0.00 0.00 0.00 42 1008.6
20260501174414 60 224 12.0 16.0 0.00 0.00 0.00 40 1008.5
20260501173911 59 228 4.0 5.0 0.00 0.00 0.00 45 1008.6
20260501173409 57 262 3.0 5.0 0.00 0.00 0.00 44 1008.8
20260501172904 57 303 3.0 5.0 0.00 0.00 0.00 44 1008.8
20260501172400 58 273 4.0 14.0 0.00 0.00 0.00 44 1009.0
20260501171855 57 70 4.0 13.0 0.00 0.00 0.00 46 1008.9
20260501171352 57 286 2.0 9.0 0.00 0.00 0.00 47 1008.8
20260501170849 57 216 8.0 13.0 0.00 0.00 0.00 43 1008.9
20260501170346 57 239 0.0 11.0 0.00 0.00 0.00 44 1009.0
20260501165844 59 276 3.0 5.0 0.00 0.00 0.00 44 1009.1
20260501165341 56 76 0.0 5.0 0.00 0.00 0.00 49 1009.1
20260501164839 57 88 5.0 7.0 0.00 0.00 0.00 49 1009.0